| time (UTC) | temp F | wind direction | speed MPH | gust MPH | rain 1hr in | rain 24hr in | rain mn in | humidity % | barometer mb |
| 20260510020007 | 50 | 55 | 0.0 | 0.0 | 0.00 | 0.52 | 0.52 | 96 | 1012.2 |
| 20260510014512 | 50 | 319 | 0.0 | 0.0 | 0.00 | 0.52 | 0.52 | 96 | 1012.3 |
| 20260510013005 | 49 | 330 | 0.0 | 0.0 | 0.01 | 0.52 | 0.52 | 96 | 1012.3 |
| 20260510011506 | 49 | 309 | 0.0 | 0.0 | 0.01 | 0.52 | 0.52 | 96 | 1012.1 |
| 20260510010001 | 49 | 180 | 0.0 | 0.0 | 0.02 | 0.52 | 0.52 | 96 | 1011.8 |
| 20260510004604 | 48 | 203 | 0.0 | 0.0 | 0.03 | 0.52 | 0.52 | 95 | 1011.8 |
| 20260510003105 | 48 | 288 | 0.0 | 0.0 | 0.04 | 0.51 | 0.51 | 95 | 1011.8 |
| 20260510001558 | 48 | 159 | 0.0 | 0.0 | 0.06 | 0.51 | 0.51 | 95 | 1012.1 |
| 20260510000121 | 47 | 68 | 0.0 | 0.0 | 0.07 | 0.50 | 0.50 | 95 | 1012.4 |
| 20260509234605 | 47 | 107 | 0.0 | 0.0 | 0.08 | 0.49 | 0.49 | 95 | 1012.3 |
| 20260509233056 | 47 | 243 | 0.0 | 0.0 | 0.07 | 0.47 | 0.47 | 95 | 1012.4 |
| 20260509231557 | 48 | 147 | 0.0 | 0.0 | 0.06 | 0.45 | 0.45 | 95 | 1012.3 |
| 20260509230057 | 47 | 131 | 0.0 | 0.0 | 0.05 | 0.43 | 0.43 | 94 | 1012.2 |
| 20260509224555 | 48 | 69 | 0.0 | 0.0 | 0.04 | 0.41 | 0.41 | 94 | 1012.0 |
| 20260509223054 | 48 | 198 | 0.0 | 0.0 | 0.04 | 0.40 | 0.40 | 94 | 1012.0 |
| 20260509221607 | 48 | 81 | 0.0 | 0.0 | 0.07 | 0.39 | 0.39 | 94 | 1012.1 |
| 20260509220103 | 48 | 339 | 0.0 | 0.0 | 0.11 | 0.38 | 0.38 | 94 | 1012.3 |
| 20260509214551 | 48 | 63 | 0.0 | 0.0 | 0.15 | 0.37 | 0.37 | 94 | 1012.3 |
| 20260509213052 | 48 | 278 | 0.0 | 0.0 | 0.19 | 0.36 | 0.36 | 94 | 1012.5 |
| 20260509211550 | 49 | 284 | 0.0 | 0.0 | 0.16 | 0.32 | 0.32 | 94 | 1012.7 |
| 20260509210057 | 49 | 252 | 0.0 | 0.0 | 0.12 | 0.27 | 0.27 | 94 | 1012.6 |
| 20260509204548 | 49 | 39 | 0.0 | 0.0 | 0.07 | 0.22 | 0.22 | 93 | 1012.4 |
| 20260509203053 | 49 | 38 | 0.0 | 0.0 | 0.02 | 0.17 | 0.17 | 93 | 1012.4 |
| 20260509201547 | 49 | 34 | 0.0 | 0.0 | 0.01 | 0.16 | 0.16 | 93 | 1012.5 |
| 20260509200046 | 49 | 34 | 0.0 | 0.0 | 0.00 | 0.15 | 0.15 | 93 | 1012.3 |
| 20260509194545 | 49 | 227 | 0.0 | 0.0 | 0.00 | 0.15 | 0.15 | 92 | 1012.4 |
| 20260509193054 | 49 | 169 | 0.0 | 0.0 | 0.00 | 0.15 | 0.15 | 93 | 1012.5 |
| 20260509191607 | 49 | 257 | 0.0 | 0.0 | 0.00 | 0.15 | 0.15 | 92 | 1012.5 |
| 20260509190049 | 49 | 39 | 0.0 | 0.0 | 0.00 | 0.15 | 0.15 | 92 | 1012.1 |
| 20260509184541 | 49 | 67 | 0.0 | 0.0 | 0.00 | 0.15 | 0.15 | 93 | 1012.3 |
| 20260509183042 | 49 | 46 | 0.0 | 0.0 | 0.01 | 0.15 | 0.15 | 93 | 1012.6 |
| 20260509181539 | 48 | 321 | 0.0 | 0.0 | 0.01 | 0.15 | 0.15 | 93 | 1013.0 |
| 20260509180035 | 48 | 32 | 0.0 | 0.0 | 0.01 | 0.15 | 0.15 | 93 | 1013.4 |
| 20260509174533 | 48 | 13 | 0.0 | 0.0 | 0.02 | 0.15 | 0.15 | 92 | 1013.3 |
| 20260509173047 | 48 | 348 | 0.0 | 0.0 | 0.01 | 0.14 | 0.14 | 92 | 1013.5 |
| 20260509171537 | 48 | 20 | 0.0 | 0.0 | 0.02 | 0.14 | 0.14 | 93 | 1013.4 |
| 20260509170036 | 47 | 27 | 0.0 | 0.0 | 0.03 | 0.14 | 0.14 | 92 | 1013.8 |
| 20260509164528 | 47 | 20 | 0.0 | 0.0 | 0.03 | 0.13 | 0.13 | 92 | 1013.7 |
| 20260509163028 | 47 | 42 | 0.0 | 0.0 | 0.03 | 0.13 | 0.13 | 92 | 1014.0 |
| 20260509161526 | 46 | 56 | 0.0 | 0.0 | 0.03 | 0.12 | 0.12 | 92 | 1013.9 |
| 20260509160024 | 47 | 37 | 0.0 | 0.0 | 0.02 | 0.11 | 0.11 | 92 | 1014.0 |
| 20260509154523 | 46 | 39 | 0.0 | 0.0 | 0.02 | 0.10 | 0.10 | 92 | 1013.7 |
| 20260509153022 | 46 | 37 | 0.0 | 0.0 | 0.03 | 0.10 | 0.10 | 92 | 1013.9 |
| 20260509151521 | 46 | 19 | 0.0 | 0.0 | 0.03 | 0.09 | 0.09 | 92 | 1014.2 |
| 20260509150027 | 45 | 63 | 0.0 | 0.0 | 0.03 | 0.08 | 0.08 | 91 | 1014.5 |
| 20260509144519 | 45 | 240 | 0.0 | 0.0 | 0.04 | 0.08 | 0.08 | 91 | 1014.7 |
| 20260509143019 | 45 | 140 | 0.0 | 0.0 | 0.04 | 0.07 | 0.07 | 92 | 1014.7 |
| 20260509141526 | 45 | 222 | 0.0 | 0.0 | 0.04 | 0.06 | 0.06 | 92 | 1014.9 |
| 20260509140028 | 45 | 165 | 0.0 | 0.0 | 0.03 | 0.05 | 0.05 | 92 | 1014.9 |
| 20260509134514 | 45 | 347 | 0.0 | 0.0 | 0.03 | 0.04 | 0.04 | 92 | 1014.8 |
| 20260509133012 | 44 | 348 | 0.0 | 0.0 | 0.02 | 0.03 | 0.03 | 93 | 1014.6 |
| 20260509131515 | 43 | 348 | 0.0 | 0.0 | 0.01 | 0.02 | 0.02 | 92 | 1014.6 |
| 20260509130007 | 43 | 345 | 0.0 | 0.0 | 0.01 | 0.02 | 0.02 | 92 | 1014.5 |
| 20260509124506 | 43 | 306 | 0.0 | 0.0 | 0.01 | 0.01 | 0.01 | 91 | 1014.7 |
| 20260509123003 | 42 | 306 | 0.0 | 0.0 | 0.01 | 0.01 | 0.01 | 91 | 1014.6 |
| 20260509121502 | 42 | 304 | 0.0 | 0.0 | 0.01 | 0.01 | 0.01 | 90 | 1014.7 |
| 20260509120000 | 42 | 110 | 0.0 | 0.0 | 0.01 | 0.01 | 0.01 | 89 | 1014.6 |
| 20260509114611 | 42 | 110 | 0.0 | 0.0 | 0.00 | 0.00 | 0.00 | 88 | 1014.7 |
| 20260509113104 | 42 | 153 | 0.0 | 0.0 | 0.00 | 0.00 | 0.00 | 87 | 1014.8 |
| 20260509111554 | 41 | 146 | 0.0 | 0.0 | 0.00 | 0.00 | 0.00 | 89 | 1014.9 |
| 20260509104553 | 0 | 0.0 | 0.0 | 0.00 | 0.00 | 0.00 | 1014.7 | ||
| 20260509103041 | 0 | 0.0 | 0.0 | 0.00 | 0.00 | 0.00 | 1014.7 | ||
| 20260509101538 | 0 | 0.0 | 0.0 | 0.00 | 0.00 | 0.00 | 1014.8 | ||
| 20260509100037 | 0 | 0.0 | 0.0 | 0.00 | 0.00 | 0.00 | 1014.5 | ||
| 20260509094529 | 0 | 0.0 | 0.0 | 0.00 | 0.00 | 0.00 | 1014.3 | ||
| 20260509093026 | 0 | 0.0 | 0.0 | 0.00 | 0.00 | 0.00 | 1014.2 | ||
| 20260509091520 | 0 | 0.0 | 0.0 | 0.00 | 0.00 | 0.00 | 1014.2 | ||
| 20260509090016 | 0 | 0.0 | 0.0 | 0.00 | 0.00 | 0.00 | 1014.0 | ||
| 20260509084513 | 0 | 0.0 | 0.0 | 0.00 | 0.00 | 0.00 | 1013.8 | ||
| 20260509083006 | 0 | 0.0 | 0.0 | 0.00 | 0.00 | 0.00 | 1013.9 | ||
| 20260509081502 | 0 | 0.0 | 0.0 | 0.00 | 0.00 | 0.00 | 1013.9 | ||
| 20260509080059 | 0 | 0.0 | 0.0 | 0.00 | 0.00 | 0.00 | 1013.9 | ||
| 20260509074556 | 0 | 0.0 | 0.0 | 0.00 | 0.00 | 0.00 | 1014.0 | ||
| 20260509073048 | 0 | 0.0 | 0.0 | 0.00 | 0.00 | 0.00 | 1014.1 | ||
| 20260509071544 | 0 | 0.0 | 0.0 | 0.00 | 0.00 | 0.00 | 1014.1 | ||
| 20260509070040 | 0 | 0.0 | 0.0 | 0.00 | 0.00 | 0.00 | 1013.8 | ||
| 20260509064536 | 0 | 0.0 | 0.0 | 0.00 | 0.00 | 0.00 | 1013.8 | ||
| 20260509063033 | 0 | 0.0 | 0.0 | 0.00 | 0.00 | 0.00 | 1013.7 | ||
| 20260509061527 | 0 | 0.0 | 0.0 | 0.00 | 0.00 | 0.00 | 1013.7 | ||
| 20260509060025 | 0 | 0.0 | 0.0 | 0.00 | 0.00 | 0.00 | 1013.7 | ||
| 20260509054525 | 0 | 0.0 | 0.0 | 0.00 | 0.00 | 0.00 | 1013.7 | ||
| 20260509053030 | 0 | 0.0 | 0.0 | 0.00 | 0.00 | 0.00 | 1013.9 | ||
| 20260509051516 | 0 | 0.0 | 0.0 | 0.00 | 0.00 | 0.00 | 1013.8 | ||
| 20260509050020 | 0 | 0.0 | 0.0 | 0.00 | 0.00 | 0.00 | 1013.6 | ||
| 20260509044501 | 0 | 0.0 | 0.0 | 0.00 | 0.00 | 0.00 | 1013.8 | ||
| 20260509043058 | 0 | 0.0 | 0.0 | 0.00 | 0.00 | 0.00 | 1013.7 | ||
| 20260509041552 | 0 | 200 | 0.0 | 0.0 | 0.00 | 0.00 | 0.00 | 1013.6 | |
| 20260509040108 | 40 | 200 | 0.0 | 0.0 | 0.00 | 0.00 | 0.00 | 80 | 1013.4 |
| 20260509034604 | 41 | 200 | 0.0 | 0.0 | 0.00 | 0.00 | 0.00 | 79 | 1013.3 |
| 20260509033048 | 41 | 200 | 0.0 | 0.0 | 0.00 | 0.00 | 0.00 | 78 | 1013.3 |
| 20260509031546 | 42 | 200 | 0.0 | 0.0 | 0.00 | 0.00 | 0.00 | 77 | 1013.4 |
| 20260509030046 | 42 | 200 | 0.0 | 0.0 | 0.00 | 0.00 | 0.00 | 76 | 1013.1 |
| 20260509024545 | 43 | 200 | 0.0 | 0.0 | 0.00 | 0.00 | 0.00 | 75 | 1013.0 |
| 20260509023048 | 43 | 200 | 0.0 | 0.0 | 0.00 | 0.00 | 0.00 | 73 | 1012.9 |
| 20260509021543 | 44 | 200 | 0.0 | 0.0 | 0.00 | 0.00 | 0.00 | 72 | 1013.0 |